User: anonymous   Login
Location: Corcelles
(46.1547°N, 4.7234°E)
Time: 11:32:17
(UTC+00:00)
Language:

Cosmos 2016 Rocket - Orbit

View from above orbital plane
View from above orbital plane
View from above satellite
View from above satellite

Ground track
Ground track

The orbit data is extracted from the following two-line orbital elements,

1 19922U 89028B   20270.46683224 -.00000008 +00000-0 -23917-4 0  9992
2 19922 082.9553 258.5736 0037637 130.5412 229.9033 13.77222359581772
Epoch (UTC): 26 September 2020 11:12:14
Eccentricity: 0.0037637
inclination: 82.9553°
perigee height: 946 km
apogee height: 1001 km
right ascension of ascending node: 258.5736°
argument of perigee: 130.5412°
revolutions per day: 13.77222359
mean anomaly at epoch: 229.9033°
orbit number at epoch: 58177

The dashed part of the orbit path shows where the satellite is in the earth's shadow,  

DLR